Details From SPTN - Coronel Carlos Ciriani Santa Rosa Intl
To SCIP - Mataveri Intl
Flight Number -
Tags Generated
Created
Modified
Stats Distance 2,229 nm / 4,128 km
Max Altitude 0 ft / 0 m
Waypoints 3
Social Downloads 1
Likes 0
Share VATSIM

Download

Looking for another format? Having issues loading an existing format? Contact us
Advertisement - Login to hide

Notes

Generated

Route

SPTN IPA SCIP

ID Type Via Altitude Latitude Longitude Leg Dist Tot Dist Heading (true) Name
O SPTN APT - 0 ft / 0 m -18.06393˚ -70.27976˚ - 0 nm - -
IPA NDB - 0 ft / 0 m -27.15400˚ -109.42117˚ 2227 nm 2227 nm 249° / 264° ISLA DE PASCUA NDB
O SCIP APT - 0 ft / 0 m -27.15796˚ -109.43667˚ 0 nm 2228 nm 254° / 254° -

Altitude Profile

Advertisement - Login to hide

Weather


0- 5 10 15 20 25 30 35+ Temperature / ° C

Clouds and Precipitation
Forecast for 2018-05-23 06:00 UTC. Updated 4 hours ago

Ground ~20,000 ft ~40,000 ft Winds

SPTN

Details ICAO SPTN (TCQ)
Name CORONEL CARLOS CIRIANI SANTA ROSA INTL
Region Peru
Timezone America/Lima (UTC-5.0)
Stats Elevation 1,538 ft / 469 m (AMSL)
Location -18.053286° -70.275821°
Runways 1
Magnetic Variation 5.724° W

METAR

SPTN 230900Z 13003KT 9999 OVC016 15/14 Q1015 RMK PP000

Decode

TAF

SPTN 230500Z 2306/2406 VRB02KT 9999 OVC015 TX24/2319Z TN12/2311Z TEMPO 2311/2313 5000 BR BECMG 2314/2316 21010KT CAVOK BECMG 2400/2402 VRB02KT BKN020

Decode

Departure Runways

ID Width Length Bearing (true) Bearing (mag) Surface Threshold Offset Overrun Length
02 148 ft / 45 m 8,234 ft / 2,510 m 19.37° 25.09° Asphalt 0 ft / 0 m 195 ft / 59 m
20 148 ft / 45 m 8,234 ft / 2,510 m 199.36° 205.08° Asphalt 0 ft / 0 m 195 ft / 59 m

SCIP

Details ICAO SCIP (IPC)
Name Mataveri Intl
Region Chile
Timezone Pacific/Easter (UTC-6.0)
Stats Elevation 227 ft / 69 m (AMSL)
Location -27.164790° -109.421829°
Runways 1
Magnetic Variation 15.089° E

METAR

SCIP 230900Z 29021KT 9999 -SHRA SCT025 BKN040 22/14 Q1007 NOSIG

Decode

TAF

TAF SCIP 230430Z 2306/2406 32015KT 9999 SCT020 BKN050 BKN150 TN17/ 2310Z TX22/2320Z TEMPO 2306/2310 29020KT 5000 TSRA/SHRA SCT010CB OVC020 BECMG 2312/2314 26025G35KT SCT020 BKN040 TEMPO 2315/2320 26020KT 6000 SHRA SCT015 BKN030 BECMG 2322/2400 23015KT

Decode

Destination Runways

ID Width Length Bearing (true) Bearing (mag) Surface Threshold Offset Overrun Length
10 145 ft / 44 m 10,848 ft / 3,306 m 117.35° 102.26° Asphalt 0 ft / 0 m 355 ft / 108 m
28 145 ft / 44 m 10,848 ft / 3,306 m 297.33° 282.24° Asphalt 0 ft / 0 m 95 ft / 29 m

Approach Navaids

Runway Type Ident Frequency Range Bearing (true) Bearing (mag) Slope Elevation
10 Localiser IIPA 110.30 MHz 18 nm / 33 km 119.21° 104.12° - 127 ft / 39 m (AMSL)
10 Glidescope IIPA 110.30 MHz 10 nm / 19 km 117.34° 102.25° 2.50° 148 ft / 45 m (AMSL)

Popular Alternatives